Location: Monrovia
(34.7865°N, 86.7139°W)
Time: 22:02:21
(UTC+00:00)

SeaSat 1 - Pass Details

Date: 14 July 2020
Orbit: 744 x 747 km, 108.0° (Epoch: 08 August)

Event Time Altitude Azimuth Distance (km) Brightness Sun altitude
Rises 07:17:46 0° 27° (NNE) 3,195 6.9 -30.1°
Reaches altitude 10° 07:20:04 10° 29° (NNE) 2,268 5.8 -29.9°
Enters shadow 07:24:06 56° 58° (ENE) 884 2.9 -29.6°
